Weather History for Grand Canyon, AZ

Change the Weather History Date:

Sunday, February 10, 2013

  Actual Average Record
Temperature  
Mean Temperature 14 °F -  
Max Temperature 26 °F 42 °F 56 °F (1979)
Min Temperature 3 °F 16 °F -2 °F (2009)
Degree Days  
Heating Degree Days 50    
Moisture  
Dew Point 16 °F    
Average Humidity 85    
Maximum Humidity 93    
Minimum Humidity 69    
Precipitation  
Precipitation 0.00 in - - ()
Sea Level Pressure  
Sea Level Pressure 29.88 in    
Wind  
Wind Speed 8 mph (WSW)    
Max Wind Speed 22 mph    
Max Gust Speed 29 mph    
Visibility 4 miles    
Events Fog , Snow    
Averages and records for this station are not official NWS values.
T = Trace of Precipitation, MM = Missing Value Source: NWS Daily Summary

Daily Weather History Graph

Daily Weather History Graph

Search for Another Location

Airport:

Trip Planner

Search our weather history database for the weather conditions in past years. The results will help you decide how hot, cold, wet, or windy it might be!

Date:

Astronomy

Feb. 10, 2013 Rise Set
Actual Time 7:20 AM MST 6:05 PM MST
Civil Twilight 6:54 AM MST 6:31 PM MST
Nautical Twilight 6:24 AM MST 7:02 PM MST
Astronomical Twilight 5:54 AM MST 7:31 PM MST
Moon 7:15 AM MST (2/10) 6:56 PM MST (2/10)
Length of Visible Light 11h 37m
Length of Day
10h 44m
New Moon, 0% of the Moon is Illuminated
Feb 10
New Moon
Feb 17
First Quarter
Feb 25
Full
Mar 4
Last Quarter
Mar 11
New

Hourly Weather History & Observations

Time (MST) Temp. Windchill Dew Point Humidity Pressure Visibility Wind Dir Wind Speed Gust Speed Precip Events Conditions
12:54 AM 21.9 °F - 19.9 °F 92% 29.95 in - North - - 0.00 in   Unknown
1:54 AM - - - N/A% 29.88 in - North - - N/A   Unknown
2:33 AM 19.4 °F 9.5 °F 17.6 °F 93% 29.88 in 9.0 mi SW 8.1 mph - N/A Snow Light Snow
2:43 AM 19.4 °F - 17.6 °F 93% 29.88 in 9.0 mi North - - N/A   Unknown
2:54 AM 19.9 °F - 18.0 °F 92% 29.94 in - North - - N/A   Unknown
3:54 AM 19.9 °F 11.1 °F 17.1 °F 89% 29.92 in 8.0 mi SW 6.9 mph - N/A   Overcast
4:04 AM 19.4 °F 14.3 °F 17.6 °F 93% 29.86 in 10.0 mi SW 3.5 mph - N/A   Overcast
4:24 AM 19.4 °F 14.3 °F 17.6 °F 93% 29.86 in 8.0 mi SW 3.5 mph - 0.00 in Snow Light Snow
4:54 AM 19.9 °F 10.1 °F 17.1 °F 89% 29.91 in 10.0 mi WSW 8.1 mph - 0.00 in   Overcast
5:54 AM 21.0 °F 9.9 °F 18.0 °F 88% 29.91 in 10.0 mi SW 10.4 mph - 0.00 in   Overcast
6:17 AM 21.2 °F 10.1 °F 17.6 °F 86% 29.85 in 10.0 mi WSW 10.4 mph - N/A   Overcast
6:24 AM 19.4 °F 7.9 °F 17.6 °F 93% 29.85 in 10.0 mi SW 10.4 mph - N/A   Overcast
6:54 AM 19.0 °F 7.5 °F 16.0 °F 88% 29.92 in 10.0 mi SW 10.4 mph - N/A   Mostly Cloudy
7:07 AM 19.4 °F 8.6 °F 15.8 °F 86% 29.85 in 10.0 mi SW 9.2 mph - N/A   Mostly Cloudy
7:54 AM 19.0 °F 9.0 °F 16.0 °F 88% 29.93 in 10.0 mi SW 8.1 mph - N/A   Overcast
8:54 AM 19.9 °F 7.9 °F 17.1 °F 89% 29.93 in 10.0 mi SW 11.5 mph - N/A   Overcast
9:07 AM 21.2 °F 10.9 °F 17.6 °F 86% 29.86 in 10.0 mi SW 9.2 mph - N/A   Overcast
9:26 AM 21.2 °F 10.9 °F 17.6 °F 86% 29.86 in 1.8 mi SW 9.2 mph - 0.00 in Snow Light Snow
9:35 AM 21.2 °F 10.1 °F 17.6 °F 86% 29.86 in 2.0 mi SW 10.4 mph - 0.00 in Snow Light Snow
9:41 AM 21.2 °F 10.9 °F 17.6 °F 86% 29.86 in 1.2 mi SW 9.2 mph - 0.00 in Snow Light Snow
9:52 AM 21.2 °F 10.1 °F 17.6 °F 86% 29.86 in 2.0 mi SW 10.4 mph - 0.00 in Snow Light Snow
9:54 AM 21.9 °F 9.8 °F 18.0 °F 85% 29.92 in 2.0 mi SW 12.7 mph - 0.00 in Snow Light Snow
10:14 AM 21.2 °F 9.5 °F 17.6 °F 86% 29.86 in 0.5 mi SW 11.5 mph - 0.00 in Fog , Snow Snow
10:54 AM 23.0 °F 9.6 °F 19.0 °F 85% 29.92 in 0.5 mi SW 16.1 mph 19.6 mph 0.00 in Fog , Snow Light Snow
11:54 AM 23.0 °F 10.6 °F 19.0 °F 85% 29.91 in - SW 13.8 mph - 0.00 in Snow Light Snow
11:59 AM 23.0 °F 9.6 °F 19.4 °F 86% 29.85 in 0.5 mi SW 16.1 mph - 0.00 in Fog , Snow Snow
12:06 PM 23.0 °F - 19.4 °F 86% 29.85 in - North - - 0.00 in   Unknown
12:54 PM - - - N/A% 29.83 in - North - - 0.00 in   Unknown
1:24 PM 24.8 °F 10.0 °F 17.6 °F 74% 29.82 in 0.8 mi SW 21.9 mph 28.8 mph N/A Snow Light Snow
1:44 PM 21.2 °F 9.5 °F 17.6 °F 86% 29.82 in 0.2 mi West 11.5 mph 21.9 mph N/A Fog , Snow Snow
1:54 PM 21.0 °F 9.9 °F 18.0 °F 88% 29.83 in 0.2 mi WSW 10.4 mph 18.4 mph N/A Fog , Snow Heavy Snow
2:02 PM 23.0 °F 14.7 °F 17.6 °F 80% 29.83 in 1.5 mi West 6.9 mph - 0.00 in Snow Light Snow
2:04 PM 23.0 °F 13.9 °F 17.6 °F 80% 29.83 in 5.0 mi West 8.1 mph - 0.00 in Snow Light Snow
2:11 PM 23.0 °F 12.4 °F 17.6 °F 80% 29.83 in 1.8 mi WSW 10.4 mph - 0.00 in Snow Light Snow
2:18 PM 24.8 °F 16.1 °F 19.4 °F 80% 29.82 in 2.0 mi WSW 8.1 mph - 0.00 in Snow Light Snow
2:29 PM 24.8 °F 14.6 °F 19.4 °F 80% 29.82 in 1.2 mi WSW 10.4 mph 16.1 mph 0.00 in Snow Light Snow
2:35 PM 24.8 °F 14.0 °F 19.4 °F 80% 29.82 in 2.0 mi WSW 11.5 mph 20.7 mph 0.00 in Snow Light Snow
2:43 PM 26.6 °F 12.4 °F 19.4 °F 74% 29.81 in 8.0 mi SW 21.9 mph 27.6 mph 0.00 in   Overcast
2:54 PM 25.0 °F 12.6 °F 16.0 °F 69% 29.87 in 9.0 mi WSW 15.0 mph 28.8 mph 0.00 in   Overcast
3:02 PM 24.8 °F 12.4 °F 15.8 °F 69% 29.81 in 5.0 mi SW 15.0 mph 21.9 mph 0.00 in Snow Light Snow
3:46 PM 24.8 °F 13.4 °F 15.8 °F 69% 29.82 in 9.0 mi WSW 12.7 mph 19.6 mph 0.00 in Snow Light Snow
3:54 PM 25.0 °F 14.2 °F 16.0 °F 69% 29.88 in 8.0 mi WSW 11.5 mph - 0.00 in   Overcast
4:01 PM 24.8 °F 13.4 °F 17.6 °F 74% 29.82 in 1.5 mi WSW 12.7 mph 20.7 mph 0.00 in Snow Light Snow
4:03 PM 24.8 °F 14.6 °F 17.6 °F 74% 29.82 in 0.8 mi West 10.4 mph 20.7 mph 0.00 in Snow Light Snow
4:13 PM 24.8 °F 16.1 °F 17.6 °F 74% 29.82 in 1.5 mi West 8.1 mph - 0.00 in Snow Light Snow
4:16 PM 24.8 °F 16.1 °F 17.6 °F 74% 29.83 in 4.0 mi WSW 8.1 mph - 0.00 in Snow Light Snow
4:36 PM 24.8 °F 16.9 °F 17.6 °F 74% 29.83 in 8.0 mi NW 6.9 mph 17.3 mph 0.00 in   Overcast
4:38 PM 24.8 °F 16.9 °F 17.6 °F 74% 29.83 in 1.0 mi WNW 6.9 mph 17.3 mph 0.00 in Snow Light Snow
4:42 PM 23.0 °F 15.8 °F 19.4 °F 86% 29.84 in 0.2 mi Variable 5.8 mph - 0.00 in Fog , Snow Snow
4:49 PM 23.0 °F 14.7 °F 17.6 °F 80% 29.84 in 0.2 mi NW 6.9 mph 16.1 mph 0.00 in Snow Heavy Snow
4:54 PM 21.9 °F 14.5 °F 18.0 °F 85% 29.92 in 0.2 mi Variable 5.8 mph 16.1 mph 0.00 in Fog , Snow Snow
5:05 PM 21.2 °F 14.9 °F 17.6 °F 86% 29.85 in 1.0 mi Variable 4.6 mph - 0.00 in Snow Light Snow
5:08 PM 21.2 °F 14.9 °F 17.6 °F 86% 29.85 in 0.8 mi Variable 4.6 mph - 0.00 in Snow Light Snow
5:15 PM 21.2 °F 13.6 °F 17.6 °F 86% 29.85 in 0.2 mi West 5.8 mph - 0.00 in Fog , Snow Light Snow
5:18 PM 21.2 °F 14.9 °F 17.6 °F 86% 29.85 in 0.5 mi Variable 4.6 mph - 0.00 in Fog , Snow Light Snow
5:22 PM 21.2 °F 14.9 °F 17.6 °F 86% 29.85 in 1.8 mi WNW 4.6 mph - 0.00 in Snow Light Snow
5:25 PM 21.2 °F 16.4 °F 17.6 °F 86% 29.85 in 3.0 mi Variable 3.5 mph - 0.00 in Snow Light Snow
5:35 PM 21.2 °F 14.9 °F 17.6 °F 86% 29.86 in 10.0 mi West 4.6 mph - 0.00 in   Scattered Clouds
5:54 PM 21.9 °F 15.7 °F 17.1 °F 82% 29.93 in 6.0 mi SW 4.6 mph - 0.00 in Snow Light Snow
6:02 PM 21.2 °F 13.6 °F 17.6 °F 86% 29.86 in 2.5 mi SW 5.8 mph - 0.00 in Snow Light Snow
6:09 PM 19.4 °F 10.4 °F 15.8 °F 86% 29.86 in 3.0 mi WSW 6.9 mph - 0.00 in Snow Light Snow
6:37 PM 21.2 °F 16.4 °F 17.6 °F 86% 29.87 in 6.0 mi WSW 3.5 mph - 0.00 in Snow Light Snow
6:54 PM 21.0 °F 14.6 °F 18.0 °F 88% 29.96 in 10.0 mi SW 4.6 mph - 0.00 in   Overcast
7:15 PM 21.2 °F 13.6 °F 17.6 °F 86% 29.88 in 1.8 mi West 5.8 mph - 0.00 in Snow Light Snow
7:18 PM 21.2 °F 14.9 °F 17.6 °F 86% 29.88 in 1.2 mi West 4.6 mph - 0.00 in Snow Light Snow
7:25 PM 21.2 °F 14.9 °F 17.6 °F 86% 29.88 in 1.5 mi WSW 4.6 mph - 0.00 in Snow Light Snow
7:27 PM 21.2 °F 14.9 °F 17.6 °F 86% 29.88 in 2.0 mi Variable 4.6 mph - 0.00 in Snow Light Snow
7:36 PM 21.2 °F 16.4 °F 17.6 °F 86% 29.88 in 3.0 mi WSW 3.5 mph - 0.00 in Snow Light Snow
7:54 PM 21.0 °F 14.6 °F 17.1 °F 85% 29.98 in 5.0 mi WSW 4.6 mph - 0.00 in Snow Light Snow
8:02 PM 19.4 °F 14.3 °F 15.8 °F 86% 29.89 in 5.0 mi WSW 3.5 mph - 0.00 in Snow Light Snow
8:16 PM 19.4 °F 14.3 °F 17.6 °F 93% 29.90 in 2.5 mi West 3.5 mph - 0.00 in Snow Light Snow
8:21 PM 19.4 °F 14.3 °F 17.6 °F 93% 29.90 in 1.8 mi WSW 3.5 mph - 0.00 in Snow Light Snow
8:26 PM 19.4 °F 14.3 °F 17.6 °F 93% 29.90 in 0.8 mi Variable 3.5 mph - 0.00 in Snow Light Snow
8:37 PM 19.4 °F - 17.6 °F 93% 29.90 in 1.8 mi Calm Calm - 0.00 in Snow Light Snow
8:39 PM 19.4 °F - 17.6 °F 93% 29.90 in 3.0 mi Calm Calm - 0.00 in Snow Light Snow
8:54 PM 19.0 °F - 15.1 °F 85% 29.99 in 10.0 mi Calm Calm - 0.00 in   Partly Cloudy
9:30 PM 6.8 °F - 3.2 °F 85% 29.91 in 1.2 mi North - - N/A   Mist
9:40 PM 6.8 °F - 3.2 °F 85% 29.91 in - North - - N/A   Unknown
9:54 PM 3.9 °F - 1.9 °F 91% 30.07 in 10.0 mi Calm Calm - N/A   Unknown
10:37 PM 6.8 °F - 3.2 °F 85% 29.91 in 1.5 mi Calm Calm - N/A   Mist
10:41 PM 8.6 °F - 3.2 °F 79% 29.91 in 0.8 mi Calm Calm - N/A   Mist
10:54 PM 10.9 °F 2.9 °F 8.1 °F 88% 30.03 in 0.2 mi NE 4.6 mph - N/A Fog Light Freezing Fog
11:11 PM 12.2 °F 6.1 °F 10.4 °F 92% 29.91 in 0.2 mi NE 3.5 mph - N/A Fog Light Freezing Fog
11:36 PM 10.4 °F - 6.8 °F 85% 29.91 in 0.2 mi Calm Calm - N/A Fog Light Freezing Fog
11:54 PM 9.0 °F - 6.1 °F 88% 30.04 in 0.8 mi Calm Calm - N/A   Mist